Regional Weather Roundup
Issued by NWS Bismarck, ND

Home | Current Version | Previous Version | Text Only | Print | Product List | Glossary On
Versions: 1 2 3 4 5 6 7 8 9 10 11 12 13 14 15 16 17 18 19 20 21 22 23 24 25 26 27 28 29 30 31 32 33 34 35 36 37 38 39 40 41 42 43 44 45 46 47 48 49 50
000
ASUS43 KBIS 191510
RWRBIS

NWR BROADCAST TEXT
NATIONAL WEATHER SERVICE BISMARCK ND
900 AM CST THU JAN 19 2017

NOTE: "FAIR" INDICATES FEW OR NO CLOUDS BELOW 12,000 FEET WITH NO
SIGNIFICANT WEATHER AND/OR OBSTRUCTIONS TO VISIBILITY.


CITY           SKY/WX    TMP DP  RH WIND       PRES   REMARKS
WILLISTON      FAIR      16  13  88 CALM      29.50R FOG
MINOT          FAIR      27  21  78 SW10      29.47F WCI  17
MINOT AFB      FAIR      24  19  83 SW9       29.47S WCI  14
BISMARCK       FAIR      11   8  88 NE7       29.53F WCI   0
DICKINSON      FAIR      20  14  77 SW5       29.47S WCI  13
GARRISON         N/A     14  11  87 N6        29.49F WCI   5
HETTINGER ARPT FAIR      13   8  81 W5        29.50F WCI   5
JAMESTOWN      FAIR      16  14  92 S6        29.54F WCI   7
CARRINGTON     FAIR      21  18  86 SE9       29.53F WCI  11
HAZEN            N/A    N/A N/A N/A SW5       29.53R
MANDAN         FAIR      14  12  92 E5        29.52F WCI   6
RUGBY            N/A     18  16  93 S3        29.49F
STANLEY        FAIR      21  19  93 CALM      29.50R
TIOGA          FAIR      19  19 100 CALM      29.49S
WATFORD CITY   FAIR      18  16  93 CALM      29.49S
$$

CITY           SKY/WX    TMP DP  RH WIND       PRES   REMARKS
GRAND FORKS    FOG       23  20  88 S17       29.59R VSB 1/8 WCI   9
GRAND FORKS AF FOG       23  21  93 S12       29.58R VSB 3/4 WCI  12
DEVILS LAKE    FAIR      18  14  84 SE5       29.52F WCI  11
FARGO          FOG       28  28 100 S7        29.62R VSB 3/4
CAVALIER         N/A     23  18  80 S10       29.53F WCI  12
GRAFTON        FAIR      19  19 100 S15       29.57F WCI   5
GWINNER        FAIR      23  23 100 SW5       29.59R WCI  17
ROLLA            N/A    N/A N/A N/A MISG        N/A
$$

CITY           SKY/WX    TMP DP  RH WIND       PRES   REMARKS
ABERDEEN       FOG       24  20  84 S7        29.59F VSB 1/4 WCI  16
MOBRIDGE         N/A     14   9  80 CALM      29.51R
BUFFALO          N/A     30  18  60 W7        29.43F
RAPID CITY     FAIR      28  16  60 NW6       29.49F
GLASGOW        FAIR      22  19  89 E7        29.44F WCI  13
SIDNEY         FAIR      18  14  84 S13       29.50R WCI   5
WOLF POINT     FAIR      12   7  80 CALM      29.48S
GLENDIVE       FAIR      18  13  80 SW9       29.50S WCI   7
MILES CITY     FAIR      18  13  80 S10       29.50F WCI   6
BAKER          FAIR      16  12  84 SE3       29.51S
$$

CITY           SKY/WX    TMP DP  RH WIND       PRES   REMARKS
BILLINGS       FAIR      32  20  61 SW13      29.51S
GREAT FALLS    FAIR      40  26  57 S17       29.45S
REGINA         MOCLDY    23  21  93 SE5       29.41S WCI  17
ESTEVAN        MOCLDY    23  19  86 S3        29.46R
$$





USA.gov is the U.S. government's official web portal to all federal, state and local government web resources and services.